EW4565 Weather Reports


Display with metric or nautical units.
time (UTC)temp
F
wind
direction
speed
MPH
gust
MPH
rain 1hr
in
rain 24hr
in
rain mn
in
humidity
%
barometer
mb
20260504190730 71 212 1.0 3.0 0.00 0.00 0.00 32 1010.8
20260504190229 71 211 1.0 3.0 0.00 0.00 0.00 33 1010.9
20260504185840 70 214 0.0 5.0 0.00 0.00 0.00 32 1010.9
20260504185813 70 208 0.0 3.0 0.00 0.00 0.00 32 1010.8
20260504184729 70 203 0.0 5.0 0.00 0.00 0.00 32 1010.9
20260504184230 70 158 1.0 6.0 0.00 0.00 0.00 34 1010.9
20260504183730 69 155 1.0 6.0 0.00 0.00 0.00 34 1011.1
20260504183648 70 154 1.0 6.0 0.00 0.00 0.00 34 1011.1
20260504183644 69 147 1.0 5.0 0.00 0.00 0.00 33 1010.9
20260504182233 70 259 1.0 6.0 0.00 0.00 0.00 33 1011.1
20260504181731 69 225 0.0 4.0 0.00 0.00 0.00 35 1011.2
20260504181232 69 234 1.0 4.0 0.00 0.00 0.00 35 1011.2
20260504180732 68 274 0.0 4.0 0.00 0.00 0.00 36 1011.2
20260504180231 68 276 0.0 4.0 0.00 0.00 0.00 39 1011.2
20260504175731 67 277 0.0 2.0 0.00 0.00 0.00 38 1011.3
20260504175236 67 277 0.0 2.0 0.00 0.00 0.00 38 1011.3
20260504174730 67 277 0.0 2.0 0.00 0.00 0.00 40 1011.4
20260504174229 67 278 0.0 3.0 0.00 0.00 0.00 42 1011.4
20260504173732 66 279 0.0 3.0 0.00 0.00 0.00 44 1011.6
20260504173230 66 279 0.0 2.0 0.00 0.00 0.00 46 1011.6
20260504172729 66 279 0.0 3.0 0.00 0.00 0.00 47 1011.7
20260504172229 65 280 0.0 3.0 0.00 0.00 0.00 46 1011.6
20260504171730 65 280 0.0 2.0 0.00 0.00 0.00 47 1011.7
20260504171231 65 280 0.0 2.0 0.00 0.00 0.00 47 1011.7
20260504171032 65 282 0.0 2.0 0.00 0.00 0.00 46 1011.7
20260504170228 65 283 0.0 1.0 0.00 0.00 0.00 48 1011.8
20260504160212 59 278 0.0 2.0 0.00 0.00 0.00 52 1012.0
20260504150705 55 276 0.0 1.0 0.00 0.00 0.00 57 1012.1
20260504150208 54 277 0.0 0.0 0.00 0.00 0.00 58 1012.1
20260504140701 50 277 0.0 0.0 0.00 0.00 0.00 68 1011.9
20260504140202 50 277 0.0 0.0 0.00 0.00 0.00 67 1011.8
20260504130659 49 277 0.0 0.0 0.00 0.00 0.00 66 1011.1
20260504130200 49 277 0.0 0.0 0.00 0.00 0.00 65 1011.1
20260504120156 50 277 0.0 0.0 0.00 0.00 0.00 63 1010.6
20260504110631 51 277 0.0 0.0 0.00 0.00 0.00 63 1010.3
20260504110132 51 276 0.0 0.0 0.00 0.00 0.00 62 1010.3
20260504100130 53 276 0.0 0.0 0.00 0.00 0.00 58 1009.8
20260504081625 55 277 0.0 0.0 0.00 0.00 0.00 53 1009.4
20260504081424 56 276 0.0 0.0 0.00 0.00 0.00 53 1009.2
20260504080624 56 277 0.0 0.0 0.00 0.00 0.00 52 1009.1
20260504080122 56 277 0.0 0.0 0.00 0.00 0.00 53 1009.2
20260504050603 61 276 0.0 0.0 0.00 0.00 0.00 48 1008.5
20260504050107 61 277 0.0 0.0 0.00 0.00 0.00 47 1008.5
20260504045608 61 277 0.0 0.0 0.00 0.00 0.00 47 1008.5
20260504045106 61 276 0.0 0.0 0.00 0.00 0.00 47 1008.5
20260504044603 62 276 0.0 0.0 0.00 0.00 0.00 48 1008.5
20260504044406 62 277 0.0 0.0 0.00 0.00 0.00 47 1008.4
20260504043601 62 277 0.0 0.0 0.00 0.00 0.00 47 1008.4
20260504043101 62 276 0.0 0.0 0.00 0.00 0.00 46 1008.4
20260504042602 62 277 0.0 0.0 0.00 0.00 0.00 47 1008.6
20260504042101 62 277 0.0 0.0 0.00 0.00 0.00 47 1008.6
20260504041859 62 277 0.0 0.0 0.00 0.00 0.00 46 1008.4
20260504041102 63 276 0.0 0.0 0.00 0.00 0.00 46 1008.4
20260504040601 63 276 0.0 0.0 0.00 0.00 0.00 46 1008.4
20260504035602 63 277 0.0 0.0 0.00 0.00 0.00 45 1008.2
20260504035106 64 276 0.0 0.0 0.00 0.00 0.00 44 1008.2
20260504034603 64 277 0.0 0.0 0.00 0.00 0.00 44 1008.2
20260504034358 65 277 0.0 0.0 0.00 0.00 0.00 44 1008.2
20260504033605 65 276 0.0 0.0 0.00 0.00 0.00 43 1008.1
20260504033104 65 276 0.0 0.0 0.00 0.00 0.00 42 1008.2
20260504032856 66 277 0.0 0.0 0.00 0.00 0.00 43 1008.0
20260504032104 67 277 0.0 0.0 0.00 0.00 0.00 42 1007.9
20260504031606 67 276 0.0 0.0 0.00 0.00 0.00 42 1007.9
20260504031104 68 277 0.0 0.0 0.00 0.00 0.00 40 1007.8
20260504030609 69 277 0.0 0.0 0.00 0.00 0.00 40 1007.8
20260504030221 70 276 0.0 0.0 0.00 0.00 0.00 39 1007.8
20260504030153 69 277 0.0 0.0 0.00 0.00 0.00 39 1007.8
20260504025102 71 277 0.0 0.0 0.00 0.00 0.00 38 1007.8
20260504024602 71 277 0.0 0.0 0.00 0.00 0.00 36 1007.8
20260504024410 72 276 0.0 0.0 0.00 0.00 0.00 34 1007.7
20260504023601 73 277 0.0 0.0 0.00 0.00 0.00 31 1007.7
20260504023405 73 277 0.0 0.0 0.00 0.00 0.00 30 1007.5
20260504022602 73 277 0.0 0.0 0.00 0.00 0.00 31 1007.7
20260504022103 74 276 0.0 2.0 0.00 0.00 0.00 30 1007.8
20260504021601 74 277 0.0 2.0 0.00 0.00 0.00 29 1007.7
20260504021100 74 278 0.0 3.0 0.00 0.00 0.00 29 1007.7
20260504020601 74 278 0.0 3.0 0.00 0.00 0.00 28 1007.7
20260504020403 75 280 0.0 2.0 0.00 0.00 0.00 28 1007.7
20260504015601 75 279 0.0 2.0 0.00 0.00 0.00 27 1007.7
20260504015103 76 280 0.0 3.0 0.00 0.00 0.00 26 1007.5
20260504014601 76 280 0.0 3.0 0.00 0.00 0.00 27 1007.7
20260504014101 76 280 0.0 3.0 0.00 0.00 0.00 26 1007.8
20260504013901 77 281 0.0 3.0 0.00 0.00 0.00 26 1007.8
20260504013358 77 281 0.0 3.0 0.00 0.00 0.00 25 1007.8
20260504012601 77 282 0.0 7.0 0.00 0.00 0.00 26 1007.8
20260504012102 77 282 1.0 7.0 0.00 0.00 0.00 25 1007.9
20260504011601 78 272 1.0 7.0 0.00 0.00 0.00 25 1008.0
20260504011101 78 277 0.0 2.0 0.00 0.00 0.00 27 1008.0
20260504010859 78 276 0.0 2.0 0.00 0.00 0.00 27 1008.0
20260504010101 78 277 0.0 2.0 0.00 0.00 0.00 27 1008.0
20260504005859 79 277 0.0 2.0 0.00 0.00 0.00 27 1008.1
20260504005101 78 277 0.0 3.0 0.00 0.00 0.00 27 1008.0
20260504004601 78 276 0.0 3.0 0.00 0.00 0.00 27 1008.0
20260504004104 78 276 0.0 3.0 0.00 0.00 0.00 27 1008.0
20260504003601 78 277 0.0 4.0 0.00 0.00 0.00 24 1008.0
20260504003101 78 276 1.0 4.0 0.00 0.00 0.00 24 1008.2
20260504002918 78 276 1.0 4.0 0.00 0.00 0.00 26 1008.3
20260504002106 78 270 1.0 4.0 0.00 0.00 0.00 24 1008.3
20260504001604 78 286 1.0 3.0 0.00 0.00 0.00 25 1008.3
20260504001105 78 286 1.0 3.0 0.00 0.00 0.00 25 1008.3
20260504000605 78 286 0.0 3.0 0.00 0.00 0.00 26 1008.5
20260504000106 78 285 0.0 3.0 0.00 0.00 0.00 26 1008.6
20260503235606 78 276 0.0 2.0 0.00 0.00 0.00 26 1008.6
20260503235105 77 276 0.0 3.0 0.00 0.00 0.00 27 1008.6
20260503234605 77 276 0.0 3.0 0.00 0.00 0.00 28 1008.7
20260503234105 77 277 1.0 4.0 0.00 0.00 0.00 28 1008.7
20260503233606 76 277 1.0 7.0 0.00 0.00 0.00 28 1008.8
20260503233105 76 272 1.0 7.0 0.00 0.00 0.00 28 1008.8
20260503232606 76 273 1.0 6.0 0.00 0.00 0.00 27 1008.8
20260503232105 76 270 1.0 6.0 0.00 0.00 0.00 26 1008.9
20260503231603 76 251 1.0 4.0 0.00 0.00 0.00 26 1009.0
20260503231103 76 248 1.0 4.0 0.00 0.00 0.00 26 1009.2
20260503230605 76 235 1.0 4.0 0.00 0.00 0.00 28 1009.1
20260503230105 76 233 1.0 6.0 0.00 0.00 0.00 27 1009.2
20260503225604 76 217 1.0 6.0 0.00 0.00 0.00 27 1009.4
20260503225410 75 264 1.0 6.0 0.00 0.00 0.00 29 1009.4
20260503224605 75 266 1.0 7.0 0.00 0.00 0.00 30 1009.5
20260503224219 75 231 1.0 4.0 0.00 0.00 0.00 28 1009.7
20260503224149 75 254 1.0 7.0 0.00 0.00 0.00 29 1009.6
20260503223104 74 221 1.0 6.0 0.00 0.00 0.00 30 1009.9
20260503222908 74 273 2.0 6.0 0.00 0.00 0.00 29 1010.0
20260503222105 74 264 2.0 7.0 0.00 0.00 0.00 30 1010.1
20260503221604 74 218 1.0 7.0 0.00 0.00 0.00 29 1010.2
20260503221105 74 261 1.0 7.0 0.00 0.00 0.00 29 1010.2
20260503220608 73 252 2.0 7.0 0.00 0.00 0.00 29 1010.2
20260503220410 73 272 1.0 6.0 0.00 0.00 0.00 28 1010.5
20260503215857 74 274 1.0 6.0 0.00 0.00 0.00 27 1010.6
20260503215105 73 251 1.0 3.0 0.00 0.00 0.00 29 1010.7
20260503214604 73 249 1.0 4.0 0.00 0.00 0.00 29 1010.7
20260503214105 73 248 1.0 4.0 0.00 0.00 0.00 28 1010.8
20260503213604 73 239 1.0 4.0 0.00 0.00 0.00 29 1010.9
20260503213106 73 228 1.0 4.0 0.00 0.00 0.00 30 1010.9
20260503212858 73 283 1.0 6.0 0.00 0.00 0.00 31 1010.9
20260503212222 72 256 1.0 6.0 0.00 0.00 0.00 30 1011.2
20260503212156 72 282 1.0 6.0 0.00 0.00 0.00 31 1011.1
20260503211106 72 249 1.0 7.0 0.00 0.00 0.00 31 1011.2
20260503210604 71 303 2.0 7.0 0.00 0.00 0.00 32 1011.3
20260503210105 71 286 2.0 6.0 0.00 0.00 0.00 32 1011.3
20260503205605 71 293 2.0 6.0 0.00 0.00 0.00 32 1011.4
20260503205107 71 275 2.0 8.0 0.00 0.00 0.00 33 1011.4
20260503204602 71 255 2.0 8.0 0.00 0.00 0.00 33 1011.4
20260503204101 71 239 2.0 7.0 0.00 0.00 0.00 32 1011.5
20260503203603 71 268 1.0 7.0 0.00 0.00 0.00 31 1011.5
20260503203101 70 310 1.0 7.0 0.00 0.00 0.00 32 1011.5
20260503202905 70 210 1.0 7.0 0.00 0.00 0.00 34 1011.7
20260503202102 69 285 2.0 7.0 0.00 0.00 0.00 34 1011.8
20260503201601 69 276 2.0 6.0 0.00 0.00 0.00 33 1011.9
20260503201103 69 270 2.0 6.0 0.00 0.00 0.00 33 1011.9
20260503200603 69 255 2.0 7.0 0.00 0.00 0.00 35 1012.0
20260503200101 69 251 2.0 7.0 0.00 0.00 0.00 34 1012.1
20260503195602 69 267 2.0 7.0 0.00 0.00 0.00 36 1012.2
20260503195100 68 272 2.0 8.0 0.00 0.00 0.00 35 1012.2
20260503194721 68 272 2.0 8.0 0.00 0.00 0.00 35 1012.3
20260503194654 68 295 2.0 8.0 0.00 0.00 0.00 34 1012.3
20260503193601 68 263 1.0 4.0 0.00 0.00 0.00 35 1012.3
20260503193102 67 262 1.0 3.0 0.00 0.00 0.00 34 1012.4
20260503192600 67 255 1.0 6.0 0.00 0.00 0.00 36 1012.5
20260503192100 66 261 1.0 6.0 0.00 0.00 0.00 37 1012.6
20260503191603 66 259 1.0 4.0 0.00 0.00 0.00 38 1012.8
20260503191101 66 256 1.0 7.0 0.00 0.00 0.00 36 1012.9
20260503190901 65 262 1.0 8.0 0.00 0.00 0.00 36 1012.9